{"data":{"norad_id":67844,"intl_designator":"2026-033Z","name":"STARLINK-36598","alt_names":[],"object_type":"PAYLOAD","status":"ACTIVE","operator":null,"country":"US","launch_date":"2026-02-16","launch_site_code":"AFETR","launch_vehicle":null,"mission":null,"orbit_class":"UNKNOWN","rcs_meters":null,"size_class":null,"mass_kg":null,"dimensions":null,"purposes":["comms"],"wikipedia_slug":null,"has_3d_model":false,"image_url":null,"decayed_at":null,"tle_current":{"epoch":"2026-09-19T23:30:06.310080Z","epoch_age_seconds":111494,"freshness":"FRESH","line1":"1 67844U 26033Z   26262.97923970  .00010847  00000+0  40301-3 0  9997","line2":"2 67844  43.0004 250.1966 0001363 262.4107  97.6590 15.27587814 34388","mean_motion":15.27587814,"eccentricity":0.0001363,"inclination_deg":43.0004,"raan_deg":250.1966,"arg_perigee_deg":262.4107,"mean_anomaly_deg":97.659,"bstar":0.00040301,"rev_number":3438,"period_min":94.266266515268,"perigee_km":482.09052173655,"apogee_km":483.96087468809,"semimajor_km":6861.1626982123,"source":"CELESTRAK","updated_at":"2026-09-20T09:00:43.671974Z"}}}